カタログに戻る

STARLINK-35692

運用中通信VLEO
NORAD 66513·PAYLOAD·🇺🇸 United States

打ち上げ Nov 15, 2025 から Cape Canaveral Space Force Station

Loading…

次のパス (今後24時間)

TLE

最新Source: CelesTrak SupGP

元期: Sep 14, 2026, 23:11 UTC

1 66513C 25263AE  26257.96645833 -.00014771  00000+0 -53494-3 0  2571
2 66513  43.0038   1.9143 0001716 269.2946 121.2076 15.27588870    13

AllMySatでSTARLINK-35692をリアルタイム追跡

Download on the App Store